Location: Hopewell Observatory
(38.8698°N, 77.6988°W)
Time: 16:46:44
(UTC-04:00)

Amateur Radio Satellites - All Passes

Search period start: 26 June 2016 16:16
Search period end: 27 June 2016 16:16
Location: Hopewell Observatory, 38.8698°N, 77.6988°W

Satellite Date Start Highest point End Downlink Frequencies (MHz)
Time Altitude Azimuth
SWISSCUBE 26 Jun 16:25:05 16:29:12 29° 292° (WNW) 16:33:18 437.505
ITAMSAT 1 26 Jun 16:35:52 16:39:08 17° 268° (W) 16:42:25 435.822/435.867
KKS-1 26 Jun 16:40:41 16:44:57 45° 100° (E) 16:49:13 437.445
AO-7 26 Jun 16:43:16 16:51:17 51° 258° (WSW) 16:59:23 29.400- 29.500
SO-50 26 Jun 16:44:27 16:49:18 67° 118° (ESE) 16:54:10 436.795
ISS 26 Jun 16:48:21 16:51:38 88° 231° (SW) 16:54:54 145.825
ITUPSAT 1 26 Jun 16:50:41 16:54:03 19° 295° (WNW) 16:57:25 437.325
BEESAT 26 Jun 16:51:21 16:54:37 19° 295° (WNW) 16:57:52 436.000
HORYU 2 26 Jun 17:02:43 17:07:03 63° 74° (ENE) 17:11:28 437.375
AIST 1 26 Jun 17:10:01 17:13:33 25° 89° (E) 17:17:05
STARS 26 Jun 17:19:17 17:23:39 61° 101° (ESE) 17:28:00 437.465
CUTE-I 26 Jun 17:19:36 17:22:37 15° 61° (ENE) 17:25:39 437.470
RS-15 26 Jun 17:29:31 17:37:24 19° 359° (N) 17:45:25 29.354- 29.394
JUGNU 26 Jun 17:31:34 17:33:01 11° 175° (S) 17:34:27 437.505
CUBESAT XI-V 26 Jun 17:35:23 17:38:33 18° 93° (E) 17:41:43 437.345
Cosmos 2504 26 Jun 17:36:21 17:38:02 11° 304° (WNW) 17:39:45 435.465 / 435.565
MOZHAYETS 4 26 Jun 17:50:35 17:54:47 34° 289° (WNW) 17:58:56
NOAA 15 26 Jun 17:53:17 17:58:16 43° 70° (ENE) 18:03:14 137.62
LilacSat-2 26 Jun 17:54:06 17:56:56 20° 69° (ENE) 17:59:47 437.200
NOAA 18 26 Jun 17:57:29 18:02:30 39° 68° (ENE) 18:07:33 137.9125
BRITE-PL 26 Jun 18:02:54 18:07:51 47° 74° (ENE) 18:12:27 437.365/2234.400
KKS-1 26 Jun 18:18:24 18:21:08 16° 295° (WNW) 18:23:53 437.445
Cubesat XI-IV 26 Jun 18:21:43 18:26:55 56° 72° (ENE) 18:32:10 437.490
DOVE 4 26 Jun 18:25:22 18:27:41 14° 66° (ENE) 18:29:59 437.250
SO-50 26 Jun 18:26:53 18:30:14 18° 316° (NW) 18:33:36 436.795
Cosmos 2499 26 Jun 18:26:54 18:33:11 25° 81° (E) 18:39:45 435.465 / 435.565
HO-68 26 Jun 18:42:37 18:46:58 17° 56° (NE) 18:51:19 435.675
HORYU 2 26 Jun 18:42:56 18:44:01 11° 269° (W) 18:45:05 437.375
AIST 1 26 Jun 18:47:33 18:51:04 24° 285° (WNW) 18:54:36
GOMX 1 26 Jun 18:48:40 18:53:21 61° 75° (ENE) 18:57:44 467.674
GONETS M04 26 Jun 18:49:58 18:58:21 55° 90° (E) 19:06:44
CUTE-I 26 Jun 18:56:45 19:02:03 69° 258° (WSW) 19:07:25 437.470
STARS 26 Jun 18:57:40 18:59:29 12° 297° (WNW) 19:01:17 437.465
CUBESAT XI-V 26 Jun 19:11:46 19:16:06 40° 288° (WNW) 19:20:23 437.345
JUGNU 26 Jun 19:19:44 19:21:06 11° 185° (S) 19:22:28 437.505
CUSAT 1 26 Jun 19:27:32 19:31:22 89° 275° (W) 19:34:22 437.405
LilacSat-2 26 Jun 19:28:01 19:31:06 24° 265° (W) 19:34:14 437.200
DANDE 26 Jun 19:28:48 19:33:31 33° 71° (ENE) 19:37:07 436.750
CANX-2 26 Jun 19:32:22 19:35:39 22° 69° (ENE) 19:38:59 2200.000
NOAA 15 26 Jun 19:34:08 19:38:10 22° 266° (W) 19:42:15 137.62
CINEMA 3 26 Jun 19:36:29 19:39:46 23° 69° (ENE) 19:43:04 145.822/145.860
STRAND 1 26 Jun 19:37:29 19:41:39 24° 95° (E) 19:45:46 437.568
NOAA 18 26 Jun 19:38:44 19:43:13 26° 264° (W) 19:47:45 137.9125
BRITE-PL 26 Jun 19:42:58 19:46:27 18° 266° (W) 19:49:48 437.365/2234.400
COMPASS 1 26 Jun 19:44:28 19:46:27 13° 65° (ENE) 19:48:26 437.405
RS-15 26 Jun 19:45:05 19:55:38 32° 34° (NE) 20:06:10 29.354- 29.394
CUTE 1.7 + AOD 2 26 Jun 19:52:15 19:56:01 32° 71° (ENE) 19:59:51 437.475
SEEDS 26 Jun 20:00:33 20:04:10 28° 70° (ENE) 20:07:48 437.485
DOVE 4 26 Jun 20:00:48 20:05:03 46° 260° (W) 20:09:09 437.250
Cubesat XI-IV 26 Jun 20:03:55 20:07:20 17° 268° (W) 20:10:45 437.490
Cosmos 2499 26 Jun 20:17:19 20:25:26 66° 280° (W) 20:34:10 435.465 / 435.565
HO-68 26 Jun 20:26:33 20:33:43 90° 270° (W) 20:40:56 435.675
ZACube-1 26 Jun 20:27:02 20:28:22 11° 63° (ENE) 20:29:42 437.345
SRMSAT 26 Jun 20:29:40 20:31:27 11° 179° (S) 20:33:14 437.500
GOMX 1 26 Jun 20:30:07 20:31:43 12° 268° (W) 20:33:16 467.674
Oscar 11 26 Jun 20:39:32 20:42:28 18° 67° (ENE) 20:45:25 145.826/435.025
UWE-3 26 Jun 20:40:41 20:44:04 24° 69° (ENE) 20:47:31 435.000/436.395/437.385
FUNcube-1 26 Jun 20:44:19 20:47:01 17° 66° (ENE) 20:49:45 145.935
AAUSAT CUBESAT 2 26 Jun 20:45:34 20:49:37 51° 74° (ENE) 20:53:42 437.432
AUBIESAT-1 26 Jun 20:46:46 20:49:49 35° 68° (ENE) 20:52:52 437.475
GONETS M04 26 Jun 20:48:05 20:55:31 31° 289° (WNW) 21:02:59
CANX-2 26 Jun 21:07:36 21:11:20 29° 264° (W) 21:15:07 2200.000
DANDE 26 Jun 21:12:38 21:15:45 17° 279° (W) 21:18:23 436.750
CINEMA 3 26 Jun 21:13:22 21:16:49 25° 264° (W) 21:20:17 145.822/145.860
STRAND 1 26 Jun 21:16:08 21:20:52 38° 291° (WNW) 21:25:35 437.568
DELFI C3 26 Jun 21:16:49 21:19:43 19° 68° (ENE) 21:22:37 145.870
COMPASS 1 26 Jun 21:17:27 21:21:32 51° 260° (W) 21:25:40 437.405
M-CUBED/EXP-1 PRIME 26 Jun 21:24:07 21:27:17 46° 255° (WSW) 21:30:27 437.505
CUBEBUG 2 26 Jun 21:24:11 21:28:17 68° 258° (WSW) 21:32:31 437.445
CUTE 1.7 + AOD 2 26 Jun 21:28:44 21:31:54 20° 266° (W) 21:35:06 437.475
SEEDS 26 Jun 21:36:29 21:39:50 22° 265° (W) 21:43:13 437.485
PRISM 26 Jun 21:36:41 21:40:46 63° 102° (ESE) 21:44:46 437.425
HUMSAT D 26 Jun 21:56:39 22:00:05 26° 69° (ENE) 22:03:35 437.325/437.525
RS-15 26 Jun 21:57:37 22:10:04 88° 62° (ENE) 22:22:20 29.354- 29.394
ZACube-1 26 Jun 21:59:58 22:04:04 60° 259° (W) 22:08:18 437.345
Oscar 11 26 Jun 22:14:15 22:18:17 38° 262° (W) 22:22:22 145.826/435.025
AO-85 26 Jun 22:14:36 22:19:57 61° 117° (ESE) 22:25:12 145.980
UWE-3 26 Jun 22:17:01 22:20:27 25° 265° (W) 22:23:57 435.000/436.395/437.385
Cosmos 2499 26 Jun 22:17:22 22:20:30 12° 302° (WNW) 22:23:42 435.465 / 435.565
HO-68 26 Jun 22:18:41 22:22:16 14° 270° (W) 22:25:52 435.675
FUNcube-1 26 Jun 22:19:03 22:22:56 38° 262° (W) 22:26:55 145.935
AAUSAT CUBESAT 2 26 Jun 22:23:43 22:25:23 12° 269° (W) 22:27:03 437.432
AUBIESAT-1 26 Jun 22:24:21 22:24:30 10° 262° (W) 22:24:40 437.475
ANTELSAT 26 Jun 22:27:17 22:30:04 16° 92° (E) 22:32:52 437.575/2403.000
ESTCUBE 1 26 Jun 22:49:31 22:52:46 20° 67° (ENE) 22:56:03 437.505/2401.250
DELFI C3 26 Jun 22:50:48 22:54:22 30° 264° (W) 22:57:57 145.870
AISAT 26 Jun 23:02:44 23:05:39 18° 66° (ENE) 23:08:33 437.250
YUBILEINY 26 Jun 23:05:38 23:11:36 19° 64° (ENE) 23:17:31 435.215
PRISM 26 Jun 23:14:48 23:15:30 10° 297° (WNW) 23:16:13 437.425
UKube-1 26 Jun 23:15:00 23:17:15 14° 64° (ENE) 23:19:30 .
TIGRISAT 26 Jun 23:18:08 23:22:40 52° 100° (E) 23:27:15 435.000
SPROUT 26 Jun 23:22:09 23:22:54 10° 63° (ENE) 23:23:39 437.525
UNISAT 6 26 Jun 23:22:30 23:27:07 62° 101° (E) 23:31:45 437.425
DX 1 26 Jun 23:29:27 23:33:00 25° 68° (ENE) 23:36:34 434.975-435.025
HUMSAT D 26 Jun 23:32:17 23:35:38 24° 265° (W) 23:39:03 437.325/437.525
CUBEBUG 1 26 Jun 23:54:11 23:58:31 65° 75° (ENE) 00:02:50 437.445
AO-85 26 Jun 23:56:41 00:00:50 22° 314° (NW) 00:04:52 145.980
VELOX 1 26 Jun 23:56:45 00:01:07 65° 74° (ENE) 00:05:30 145.980
ANTELSAT 27 Jun 00:02:31 00:07:00 49° 287° (WNW) 00:11:31 437.575/2403.000
NANOSAT C BR1 27 Jun 00:02:32 00:06:02 25° 96° (E) 00:09:32 145.865
50 SAT 27 Jun 00:02:42 00:06:24 86° 72° (ENE) 00:10:09 437.505
QB50P1 27 Jun 00:04:12 00:07:51 27° 96° (E) 00:11:29 145.935-145.965
POPSAT HIP 1 27 Jun 00:07:09 00:10:53 29° 97° (E) 00:14:35 437.405
RS-15 27 Jun 00:12:05 00:20:57 24° 260° (W) 00:29:47 29.354- 29.394
Cosmos 2491 27 Jun 00:13:15 00:20:08 27° 82° (E) 00:26:59 435.465 / 435.565
QB50P2 27 Jun 00:18:41 00:22:45 42° 99° (E) 00:26:49 145.880/145.840
POLYITAN 1 27 Jun 00:21:17 00:25:23 44° 99° (E) 00:29:28 437.675
DUCHIFAT 1 27 Jun 00:23:44 00:27:44 40° 99° (E) 00:31:44 145.980
ESTCUBE 1 27 Jun 00:25:04 00:29:18 38° 262° (W) 00:33:32 437.505/2401.250
AISAT 27 Jun 00:37:38 00:41:47 40° 261° (W) 00:45:58 437.250
TISAT 1 27 Jun 00:47:06 00:50:25 24° 69° (ENE) 00:53:46 437.305
UKube-1 27 Jun 00:48:39 00:52:51 50° 260° (W) 00:57:04 .
SPROUT 27 Jun 00:54:02 00:58:15 68° 258° (WSW) 01:02:30 437.525
TIGRISAT 27 Jun 00:56:10 00:58:55 16° 295° (WNW) 01:01:41 435.000
YUBILEINY 27 Jun 01:00:39 01:09:31 86° 264° (W) 01:18:22 435.215
UNISAT 6 27 Jun 01:01:03 01:03:17 14° 296° (WNW) 01:05:32 437.425
DX 1 27 Jun 01:05:25 01:09:05 27° 263° (W) 01:12:46 434.975-435.025
SO-50 27 Jun 01:17:27 01:21:51 41° 52° (NE) 01:26:08 436.795
BUGSAT 1 27 Jun 01:27:58 01:32:04 79° 282° (WNW) 01:36:11 437.445
Cosmos 2504 27 Jun 01:28:38 01:37:14 50° 76° (ENE) 01:45:28 435.465 / 435.565
VELOX 1 27 Jun 01:37:15 01:37:59 10° 270° (W) 01:38:42 145.980
NANOSAT C BR1 27 Jun 01:38:11 01:41:41 26° 291° (WNW) 01:45:11 145.865
QB50P1 27 Jun 01:40:07 01:43:30 23° 291° (WNW) 01:46:53 145.935-145.965
POPSAT HIP 1 27 Jun 01:43:12 01:46:30 22° 292° (WNW) 01:49:48 437.405
SWISSCUBE 27 Jun 01:52:39 01:56:44 28° 68° (ENE) 02:00:49 437.505
QB50P2 27 Jun 01:55:36 01:58:12 16° 294° (WNW) 02:00:46 145.880/145.840
POLYITAN 1 27 Jun 01:58:16 02:00:49 16° 294° (WNW) 02:03:21 437.675
DUCHIFAT 1 27 Jun 02:00:27 02:03:06 16° 294° (WNW) 02:05:45 145.980
JAS-2 27 Jun 02:03:53 02:09:36 87° 286° (WNW) 02:14:51 435.910
Cosmos 2491 27 Jun 02:07:36 02:16:16 62° 281° (W) 02:24:56 435.465 / 435.565
ITUPSAT 1 27 Jun 02:17:21 02:21:54 45° 71° (ENE) 02:26:28 437.325
BEESAT 27 Jun 02:17:37 02:22:09 46° 72° (ENE) 02:26:44 436.000
TISAT 1 27 Jun 02:22:29 02:25:58 26° 264° (W) 02:29:28 437.305
PCSat 27 Jun 02:29:45 02:34:48 41° 111° (ESE) 02:39:52 145.827
BEESAT 3 27 Jun 02:42:21 02:45:26 22° 112° (ESE) 02:48:33 437.485
Oscar 19 27 Jun 02:49:59 02:55:08 84° 285° (WNW) 03:00:16 437.125/150
Gurwin Techsat 1B 27 Jun 02:51:36 02:56:40 43° 99° (E) 03:01:42 435.225
SO-50 27 Jun 02:58:37 03:02:02 21° 250° (WSW) 03:05:21 436.795
YUBILEINY 27 Jun 03:00:18 03:04:54 15° 283° (WNW) 03:09:31 435.215
ITAMSAT 1 27 Jun 03:09:09 03:13:07 22° 94° (E) 03:17:03 435.822/435.867
MOZHAYETS 4 27 Jun 03:15:03 03:18:17 19° 66° (ENE) 03:21:30
BEESAT 2 27 Jun 03:16:01 03:19:27 29° 113° (ESE) 03:22:55 435.950
O/OREOS (USA 219) 27 Jun 03:21:03 03:25:27 57° 108° (ESE) 03:29:52 437.305
Cosmos 2504 27 Jun 03:22:31 03:30:16 35° 275° (W) 03:37:46 435.465 / 435.565
SWISSCUBE 27 Jun 03:30:19 03:34:26 28° 264° (W) 03:38:35 437.505
KKS-1 27 Jun 03:37:30 03:41:32 35° 71° (ENE) 03:45:34 437.445
JAS-2 27 Jun 03:52:10 03:53:38 11° 304° (NW) 03:55:04 435.910
ITUPSAT 1 27 Jun 03:56:40 03:59:55 18° 267° (W) 04:03:11 437.325
BEESAT 27 Jun 03:57:00 04:00:09 17° 267° (W) 04:03:19 436.000
Cosmos 2491 27 Jun 04:13:23 04:15:06 11° 303° (WNW) 04:16:49 435.465 / 435.565
PCSat 27 Jun 04:13:41 04:18:17 28° 308° (NW) 04:22:57 145.827
STARS 27 Jun 04:14:35 04:18:44 45° 72° (ENE) 04:22:54 437.465
BEESAT 3 27 Jun 04:19:32 04:22:58 28° 308° (NW) 04:26:26 437.485
Gurwin Techsat 1B 27 Jun 04:32:11 04:36:19 23° 295° (WNW) 04:40:26 435.225
CUBESAT XI-V 27 Jun 04:37:54 04:40:52 17° 65° (ENE) 04:43:50 437.345
AO-7 27 Jun 04:45:49 04:54:08 61° 104° (ESE) 05:02:21 29.400- 29.500
ITAMSAT 1 27 Jun 04:47:48 04:52:44 43° 290° (WNW) 04:57:39 435.822/435.867
MOZHAYETS 4 27 Jun 04:50:45 04:55:06 41° 262° (W) 04:59:30
BEESAT 2 27 Jun 04:54:02 04:57:16 23° 310° (NW) 05:00:31 435.950
AIST 1 27 Jun 04:54:45 04:59:00 70° 81° (E) 05:03:14
HORYU 2 27 Jun 04:56:35 04:58:44 13° 92° (E) 05:00:52 437.375
GONETS M04 27 Jun 05:02:18 05:09:11 25° 68° (ENE) 05:16:03
O/OREOS (USA 219) 27 Jun 05:02:49 05:05:14 14° 305° (NW) 05:07:39 437.305
KKS-1 27 Jun 05:15:01 05:18:11 19° 266° (W) 05:21:21 437.445
AIST 2 27 Jun 05:20:17 05:24:00 34° 115° (ESE) 05:27:45 435.215
STARS 27 Jun 05:52:51 05:55:18 15° 267° (W) 05:57:45 437.465
Cosmos 2499 27 Jun 06:10:25 06:18:49 45° 75° (ENE) 06:26:41 435.465 / 435.565
BRITE-PL 27 Jun 06:10:37 06:12:30 13° 92° (E) 06:14:23 437.365/2234.400
NOAA 15 27 Jun 06:10:42 06:14:08 17° 93° (E) 06:17:32 137.62
CUBESAT XI-V 27 Jun 06:13:17 06:17:50 49° 261° (W) 06:22:25 437.345
NOAA 18 27 Jun 06:21:34 06:25:17 18° 93° (E) 06:28:58 137.9125
HORYU 2 27 Jun 06:31:11 06:35:35 53° 287° (WNW) 06:39:57 437.375
AO-7 27 Jun 06:39:22 06:46:22 31° 302° (WNW) 06:53:20 29.400- 29.500
Cubesat XI-IV 27 Jun 06:40:47 06:45:10 25° 95° (E) 06:49:31 437.490
CUSAT 1 27 Jun 06:45:17 06:50:16 19° 86° (E) 06:54:52 437.405
AO-85 27 Jun 06:48:33 06:52:41 33° 51° (NE) 06:56:30 145.980
STRAND 1 27 Jun 06:52:02 06:56:31 31° 68° (ENE) 07:01:01 437.568
GOMX 1 27 Jun 06:52:18 06:55:07 17° 94° (E) 06:57:59 467.674
DANDE 27 Jun 06:55:14 06:56:59 11° 78° (ENE) 06:58:43 436.750
GONETS M04 27 Jun 06:58:03 07:06:40 68° 268° (W) 07:15:19
AIST 2 27 Jun 06:59:18 07:02:33 22° 311° (NW) 07:05:49 435.215
LilacSat-2 27 Jun 07:01:51 07:05:27 36° 98° (E) 07:09:03 437.200
PHONESAT 2.4 27 Jun 07:07:19 07:09:27 17° 149° (SSE) 07:11:35 2401.200-2431.200
CUTE-I 27 Jun 07:15:04 07:20:21 53° 100° (E) 07:25:34 437.470
BRITE-PL 27 Jun 07:47:19 07:51:16 44° 287° (WNW) 07:55:13 437.365/2234.400
NOAA 15 27 Jun 07:49:06 07:54:12 53° 288° (WNW) 07:59:17 137.62
HO-68 27 Jun 07:57:20 08:02:00 18° 91° (E) 08:06:39 435.675
DOVE 4 27 Jun 08:00:02 08:04:12 45° 100° (E) 08:08:33 437.250
NOAA 18 27 Jun 08:00:50 08:06:16 57° 289° (WNW) 08:11:41 137.9125
Cosmos 2499 27 Jun 08:03:53 08:11:42 38° 275° (W) 08:19:08 435.465 / 435.565
Cubesat XI-IV 27 Jun 08:20:20 08:25:19 39° 291° (WNW) 08:30:17 437.490
CUSAT 1 27 Jun 08:23:50 08:31:49 82° 279° (W) 08:38:41 437.405
PRISM 27 Jun 08:24:45 08:28:36 37° 72° (ENE) 08:32:27 437.425
GOMX 1 27 Jun 08:29:30 08:33:19 35° 288° (WNW) 08:37:15 467.674
AO-85 27 Jun 08:29:30 08:32:53 22° 250° (WSW) 08:36:04 145.980
DANDE 27 Jun 08:30:16 08:38:29 62° 94° (E) 08:46:19 436.750
STRAND 1 27 Jun 08:31:10 08:35:37 29° 264° (W) 08:40:06 437.568
LilacSat-2 27 Jun 08:37:10 08:39:27 15° 293° (WNW) 08:41:43 437.200
PHONESAT 2.4 27 Jun 08:42:41 08:45:45 76° 162° (SSE) 08:48:49 2401.200-2431.200
CANX-2 27 Jun 08:53:15 08:57:27 50° 99° (E) 09:01:35 2200.000
CUTE-I 27 Jun 08:56:11 08:59:57 20° 296° (WNW) 09:03:43 437.470
GONETS M04 27 Jun 09:00:35 09:01:42 10° 286° (WNW) 09:02:50
COMPASS 1 27 Jun 09:01:53 09:05:25 26° 95° (E) 09:08:55 437.405
M-CUBED/EXP-1 PRIME 27 Jun 09:06:11 09:06:31 10° 98° (E) 09:06:50 437.505
CINEMA 3 27 Jun 09:07:30 09:12:03 74° 102° (ESE) 09:16:47 145.822/145.860
CUTE 1.7 + AOD 2 27 Jun 09:13:31 09:17:49 76° 102° (ESE) 09:22:04 437.475
CUBEBUG 2 27 Jun 09:16:04 09:20:02 28° 96° (E) 09:24:03 437.445
SEEDS 27 Jun 09:20:31 09:24:45 64° 101° (E) 09:28:55 437.485
ANTELSAT 27 Jun 09:26:39 09:28:01 11° 63° (ENE) 09:29:24 437.575/2403.000
ISS 27 Jun 09:26:49 09:30:00 56° 138° (SE) 09:33:13 145.825
DOVE 4 27 Jun 09:39:03 09:41:35 15° 293° (WNW) 09:44:10 437.250
HO-68 27 Jun 09:43:09 09:50:22 77° 288° (WNW) 09:57:32 435.675
ZACube-1 27 Jun 09:49:30 09:53:27 28° 96° (E) 09:57:23 437.345
AUBIESAT-1 27 Jun 09:59:35 10:03:16 37° 104° (ESE) 10:07:11 437.475
PRISM 27 Jun 10:01:23 10:04:01 16° 266° (W) 10:06:39 437.425
Oscar 11 27 Jun 10:02:26 10:06:34 40° 98° (E) 10:10:39 145.826/435.025
AAUSAT CUBESAT 2 27 Jun 10:04:18 10:08:28 70° 284° (WNW) 10:12:35 437.432
UWE-3 27 Jun 10:06:26 10:11:01 68° 101° (E) 10:15:38 435.000/436.395/437.385
FUNcube-1 27 Jun 10:07:42 10:12:01 42° 98° (E) 10:16:20 145.935
CUSAT 1 27 Jun 10:10:23 10:14:30 15° 293° (WNW) 10:18:20 437.405
DANDE 27 Jun 10:14:29 10:21:39 31° 289° (WNW) 10:28:29 436.750
TIGRISAT 27 Jun 10:15:47 10:19:43 37° 71° (ENE) 10:23:43 435.000
RS-15 27 Jun 10:16:09 10:19:44 12° 94° (E) 10:23:21 29.354- 29.394
PHONESAT 2.4 27 Jun 10:19:24 10:22:27 60° 0° (N) 10:25:30 2401.200-2431.200
UNISAT 6 27 Jun 10:20:12 10:24:17 44° 72° (ENE) 10:28:27 437.425
Cosmos 2491 27 Jun 10:27:07 10:29:15 11° 58° (ENE) 10:31:23 435.465 / 435.565
DELFI C3 27 Jun 10:29:20 10:33:01 34° 97° (E) 10:36:39 145.870
CANX-2 27 Jun 10:30:39 10:32:51 14° 295° (WNW) 10:35:03 2200.000
M-CUBED/EXP-1 PRIME 27 Jun 10:37:26 10:41:14 60° 290° (WNW) 10:45:20 437.505
COMPASS 1 27 Jun 10:37:30 10:40:51 24° 291° (WNW) 10:44:11 437.405
CINEMA 3 27 Jun 10:47:24 10:48:37 11° 296° (WNW) 10:49:51 145.822/145.860
CUBEBUG 2 27 Jun 10:52:40 10:56:33 28° 290° (WNW) 11:00:31 437.445
NANOSAT C BR1 27 Jun 10:54:21 10:56:57 16° 66° (ENE) 10:59:34 145.865
QB50P1 27 Jun 10:56:10 10:59:01 18° 67° (ENE) 11:01:52 145.935-145.965
SEEDS 27 Jun 10:58:47 10:59:52 11° 297° (WNW) 11:00:57 437.485
POPSAT HIP 1 27 Jun 10:59:06 11:02:04 19° 67° (ENE) 11:05:02 437.405
ANTELSAT 27 Jun 10:59:54 11:04:08 64° 259° (WSW) 11:08:29 437.575/2403.000
BEESAT 3 27 Jun 11:01:31 11:03:01 12° 43° (NE) 11:04:31 437.485
ISS 27 Jun 11:04:08 11:06:39 20° 335° (NNW) 11:09:12 145.825
QB50P2 27 Jun 11:10:21 11:13:53 27° 70° (ENE) 11:17:27 145.880/145.840
POLYITAN 1 27 Jun 11:12:57 11:16:31 28° 69° (ENE) 11:20:05 437.675
DUCHIFAT 1 27 Jun 11:14:43 11:18:09 25° 69° (ENE) 11:21:36 145.980
HUMSAT D 27 Jun 11:15:51 11:20:07 58° 100° (E) 11:24:21 437.325/437.525
PCSat 27 Jun 11:18:54 11:23:30 27° 51° (NE) 11:28:04 145.827
ZACube-1 27 Jun 11:25:50 11:29:36 26° 291° (WNW) 11:33:23 437.345
HO-68 27 Jun 11:33:20 11:36:54 15° 306° (NW) 11:40:29 435.675
AUBIESAT-1 27 Jun 11:34:56 11:37:31 17° 297° (WNW) 11:40:13 437.475
BEESAT 2 27 Jun 11:35:43 11:38:01 15° 45° (NE) 11:40:18 435.950
Oscar 11 27 Jun 11:39:30 11:42:21 17° 294° (WNW) 11:45:12 145.826/435.025
FUNcube-1 27 Jun 11:44:50 11:47:55 18° 293° (WNW) 11:51:01 145.935
UWE-3 27 Jun 11:45:04 11:46:54 12° 296° (WNW) 11:48:44 435.000/436.395/437.385
CUBEBUG 1 27 Jun 11:45:49 11:47:47 13° 92° (E) 11:49:45 437.445
VELOX 1 27 Jun 11:49:50 11:51:56 13° 92° (E) 11:54:00 145.980
TIGRISAT 27 Jun 11:53:41 11:56:32 17° 267° (W) 11:59:27 435.000
PHONESAT 2.4 27 Jun 11:56:04 11:59:08 73° 197° (SSW) 12:02:13 2401.200-2431.200
UNISAT 6 27 Jun 11:58:52 12:01:15 15° 268° (W) 12:03:39 437.425
DELFI C3 27 Jun 12:05:02 12:07:35 17° 293° (WNW) 12:10:06 145.870
YUBILEINY 27 Jun 12:06:10 12:12:21 22° 80° (E) 12:18:34 435.215
JAS-2 27 Jun 12:12:37 12:19:39 41° 68° (ENE) 12:26:09 435.910
BUGSAT 1 27 Jun 12:16:16 12:20:14 57° 74° (ENE) 12:24:10 437.445
RS-15 27 Jun 12:18:25 12:29:32 66° 114° (ESE) 12:41:18 29.354- 29.394
ESTCUBE 1 27 Jun 12:18:30 12:22:51 47° 99° (E) 12:27:10 437.505/2401.250
Cosmos 2491 27 Jun 12:19:23 12:28:02 64° 79° (E) 12:36:39 435.465 / 435.565
NANOSAT C BR1 27 Jun 12:28:26 12:32:21 39° 262° (W) 12:36:18 145.865
AISAT 27 Jun 12:28:49 12:32:56 38° 99° (E) 12:37:02 437.250
Oscar 19 27 Jun 12:29:03 12:31:55 15° 62° (ENE) 12:34:46 437.125/150
QB50P1 27 Jun 12:30:41 12:34:31 35° 262° (W) 12:38:24 145.935-145.965
POPSAT HIP 1 27 Jun 12:33:50 12:37:36 33° 262° (W) 12:41:25 437.405
UKube-1 27 Jun 12:37:13 12:40:55 27° 97° (E) 12:44:35 .
BEESAT 3 27 Jun 12:37:15 12:41:12 75° 241° (WSW) 12:45:07 437.485
SPROUT 27 Jun 12:41:48 12:45:08 22° 95° (E) 12:48:28 437.525
QB50P2 27 Jun 12:46:20 12:49:39 23° 265° (W) 12:53:00 145.880/145.840
POLYITAN 1 27 Jun 12:49:00 12:52:17 22° 265° (W) 12:55:35 437.675
DUCHIFAT 1 27 Jun 12:50:24 12:53:46 24° 264° (W) 12:57:10 145.980
HUMSAT D 27 Jun 12:53:23 12:55:13 12° 296° (WNW) 12:57:02 437.325/437.525
DX 1 27 Jun 12:53:57 12:58:12 54° 100° (E) 13:02:27 434.975-435.025
PCSat 27 Jun 13:01:56 13:07:02 43° 249° (WSW) 13:12:06 145.827
50 SAT 27 Jun 13:06:32 13:10:11 60° 285° (WNW) 13:13:48 437.505
BEESAT 2 27 Jun 13:12:16 13:16:11 56° 243° (WSW) 13:20:04 435.950
CUBEBUG 1 27 Jun 13:20:10 13:24:21 50° 287° (WNW) 13:28:31 437.445
VELOX 1 27 Jun 13:24:24 13:28:41 51° 287° (WNW) 13:32:55 145.980
O/OREOS (USA 219) 27 Jun 13:32:09 13:36:38 89° 50° (NE) 13:41:08 437.305
PHONESAT 2.4 27 Jun 13:33:21 13:35:26 17° 212° (SSW) 13:37:31 2401.200-2431.200
AIST 2 27 Jun 13:43:05 13:46:00 18° 47° (NE) 13:48:55 435.215
AO-7 27 Jun 13:55:27 14:00:00 16° 49° (NE) 14:04:34 29.400- 29.500
ESTCUBE 1 27 Jun 13:56:31 13:59:15 16° 295° (WNW) 14:01:57 437.505/2401.250
JAS-2 27 Jun 13:57:23 14:04:32 40° 262° (W) 14:11:15 435.910
YUBILEINY 27 Jun 13:59:31 14:08:11 72° 279° (W) 14:16:58 435.215
Cosmos 2504 27 Jun 14:05:04 14:12:25 41° 86° (E) 14:20:14 435.465 / 435.565
Oscar 19 27 Jun 14:05:33 14:10:39 66° 258° (WSW) 14:15:47 437.125/150
AISAT 27 Jun 14:06:06 14:09:06 18° 294° (WNW) 14:12:06 437.250
TISAT 1 27 Jun 14:06:42 14:10:48 49° 100° (E) 14:14:53 437.305
Gurwin Techsat 1B 27 Jun 14:11:20 14:16:32 60° 73° (ENE) 14:21:47 435.225
UKube-1 27 Jun 14:13:21 14:16:50 24° 292° (WNW) 14:20:16 .
SPROUT 27 Jun 14:17:22 14:21:05 29° 290° (WNW) 14:24:47 437.525
Cosmos 2491 27 Jun 14:17:26 14:24:08 26° 278° (W) 14:30:50 435.465 / 435.565
ISS 27 Jun 14:20:18 14:21:46 12° 15° (NNE) 14:23:14 145.825
BEESAT 27 Jun 14:20:50 14:22:55 13° 91° (E) 14:25:01 436.000
ITUPSAT 1 27 Jun 14:21:01 14:23:03 12° 91° (E) 14:25:03 437.325
ITAMSAT 1 27 Jun 14:25:44 14:30:12 30° 67° (ENE) 14:34:42 435.822/435.867
DX 1 27 Jun 14:31:51 14:33:55 13° 296° (WNW) 14:35:58 434.975-435.025
RS-15 27 Jun 14:32:06 14:42:45 41° 318° (NW) 14:53:59 29.354- 29.394
AIST 2 27 Jun 15:20:44 15:24:42 45° 244° (WSW) 15:28:40 435.215
SWISSCUBE 27 Jun 15:30:50 15:35:39 80° 103° (ESE) 15:40:26 437.505
SO-50 27 Jun 15:31:23 15:34:43 19° 109° (ESE) 15:38:03 436.795
AO-7 27 Jun 15:43:04 15:51:20 73° 69° (ENE) 15:59:40 29.400- 29.500
TISAT 1 27 Jun 15:43:55 15:46:01 14° 295° (WNW) 15:48:08 437.305
Gurwin Techsat 1B 27 Jun 15:53:45 15:56:52 16° 269° (W) 16:00:00 435.225
HORYU 2 27 Jun 15:54:39 15:56:02 11° 62° (ENE) 15:57:25 437.375
ISS 27 Jun 15:55:41 15:58:52 46° 35° (NE) 16:02:01 145.825
BEESAT 27 Jun 15:56:21 16:01:06 62° 286° (WNW) 16:05:49 436.000
ITUPSAT 1 27 Jun 15:56:30 16:01:16 64° 287° (WNW) 16:06:00 437.325
Cosmos 2504 27 Jun 15:58:15 16:05:43 40° 287° (WNW) 16:13:43 435.465 / 435.565
YUBILEINY 27 Jun 16:02:57 16:06:43 13° 301° (WNW) 16:10:30 435.215
ITAMSAT 1 27 Jun 16:04:58 16:09:34 32° 263° (W) 16:14:13 435.822/435.867
